Pittsburgh Allegheny Co., PA

7:56 PM EST on November 11, 2019 (GMT -0500)
Allegheny County

Weather History for KAGC - October, 2019

Change the Weather History Date:

Tuesday, October 22, 2019

  Actual Average Record
Temperature  
Mean Temperature 58 °F -  
Max Temperature 63 °F 59 °F 77 °F (2007)
Min Temperature 51 °F 35 °F 29 °F (1991)
Degree Days  
Heating Degree Days 8    
Growing Degree Days 8 (Base 50)    
Moisture  
Dew Point 54 °F    
Average Humidity 91    
Maximum Humidity 100    
Minimum Humidity 67    
Precipitation  
Precipitation 0.67 in - - ()
Sea Level Pressure  
Sea Level Pressure 29.81 in    
Wind  
Wind Speed 6 mph (SSW)    
Max Wind Speed 13 mph    
Max Gust Speed 24 mph    
Visibility 6 miles    
Events Fog , Rain    
Averages and records for this station are not official NWS values.
T = Trace of Precipitation, MM = Missing Value Source: NWS Daily Summary

Daily Weather History Graph

Daily Weather History Graph

Search for Another Location

Airport or City:

Astronomy

Oct. 22, 2019 Rise Set
Actual Time 7:37 AM EDT 6:29 PM EDT
Civil Twilight 7:10 AM EDT 6:57 PM EDT
Nautical Twilight 6:38 AM EDT 7:29 PM EDT
Astronomical Twilight 6:06 AM EDT 8:00 PM EDT
Moon 12:44 AM EDT (10/22) 3:39 PM EDT (10/22)
Length of Visible Light 11h 47m
Length of Day
10h 52m
Last Quarter, 37% of the Moon is Illuminated
Oct 22
Last Quarter
Oct 27
New
Nov 4
First Quarter
Nov 12
Full
Nov 19
Last Quarter

Hourly Weather History & Observations

Time (EDT) Temp. Dew Point Humidity Pressure Visibility Wind Dir Wind Speed Gust Speed Precip Events Conditions
12:53 AM 63.0 °F 52.0 °F 67% 29.85 in 10.0 mi SE 6.9 mph - N/A   Overcast
1:53 AM 62.1 °F 52.0 °F 70% 29.83 in 10.0 mi SSE 4.6 mph - N/A   Partly Cloudy
2:53 AM 62.1 °F 53.1 °F 72% 29.81 in 10.0 mi SSE 6.9 mph - N/A   Overcast
3:53 AM 63.0 °F 53.1 °F 70% 29.79 in 10.0 mi SSE 6.9 mph - N/A   Overcast
4:53 AM 61.0 °F 54.0 °F 78% 29.82 in 7.0 mi SW 4.6 mph - 0.00 in Rain Light Rain
5:43 AM 57.9 °F 57.0 °F 97% 29.81 in 2.5 mi Calm Calm - 0.03 in Rain Light Rain
5:53 AM 57.9 °F 55.9 °F 93% 29.80 in 4.0 mi East 4.6 mph - 0.03 in Rain Light Rain
6:29 AM 57.9 °F 57.0 °F 97% 29.80 in 1.8 mi SE 5.8 mph - 0.02 in Rain Light Rain
6:36 AM 57.9 °F 57.0 °F 97% 29.80 in 3.0 mi SE 5.8 mph - 0.02 in Rain Light Rain
6:53 AM 57.9 °F 57.0 °F 97% 29.79 in 5.0 mi SE 4.6 mph - 0.03 in Rain Light Rain
7:22 AM 57.9 °F 57.0 °F 97% 29.78 in 7.0 mi Calm Calm - 0.00 in Rain Light Rain
7:39 AM 57.9 °F 57.0 °F 97% 29.78 in 9.0 mi SE 3.5 mph - 0.00 in Rain Light Rain
7:53 AM 57.9 °F 57.0 °F 97% 29.78 in 9.0 mi Calm Calm - 0.00 in   Overcast
8:17 AM 59.0 °F 57.0 °F 93% 29.78 in 8.0 mi Calm Calm - N/A   Overcast
8:33 AM 59.0 °F 57.0 °F 93% 29.79 in 1.8 mi WSW 5.8 mph - 0.02 in Rain Light Rain
8:45 AM 57.9 °F 57.9 °F 100% 29.79 in 0.5 mi WNW 5.8 mph - 0.06 in Fog , Rain Rain
8:49 AM 57.2 °F 57.2 °F 100% 29.79 in 1.0 mi West 4.6 mph - 0.07 in Rain Rain
8:53 AM 57.9 °F 57.9 °F 100% 29.79 in 1.0 mi Variable 3.5 mph - 0.07 in Rain Light Rain
8:55 AM 57.9 °F 57.9 °F 100% 29.79 in 0.8 mi WNW 4.6 mph - 0.01 in Rain Light Rain
9:01 AM 57.9 °F 57.9 °F 100% 29.81 in 0.8 mi WNW 5.8 mph - 0.01 in Rain Light Rain
9:21 AM 55.0 °F 54.0 °F 96% 29.82 in 1.2 mi WNW 10.4 mph 24.2 mph 0.11 in Rain Light Rain
9:24 AM 55.0 °F 54.0 °F 96% 29.82 in 2.0 mi WNW 11.5 mph 24.2 mph 0.11 in Rain Light Rain
9:38 AM 55.0 °F 54.0 °F 96% 29.84 in 1.0 mi Variable 5.8 mph - 0.15 in Rain Rain
9:53 AM 55.0 °F 54.0 °F 96% 29.86 in 1.5 mi West 6.9 mph - 0.21 in Rain Light Rain
10:17 AM 55.0 °F 54.0 °F 96% 29.81 in 3.0 mi Calm Calm - 0.02 in Rain Light Rain
10:28 AM 55.0 °F 54.0 °F 96% 29.81 in 4.0 mi Calm Calm - 0.03 in Rain Light Rain
10:53 AM 55.0 °F 54.0 °F 96% 29.81 in 2.0 mi SE 4.6 mph - 0.04 in Rain Light Rain
10:56 AM 55.0 °F 55.0 °F 100% 29.81 in 2.0 mi SE 4.6 mph - 0.00 in Rain Light Rain
11:29 AM 55.0 °F 54.0 °F 96% 29.81 in 2.0 mi SSE 8.1 mph - 0.09 in Rain Rain
11:53 AM 54.0 °F 54.0 °F 100% 29.83 in 3.0 mi South 8.1 mph - 0.16 in Rain Rain
12:00 PM 54.0 °F 53.1 °F 97% 29.83 in 1.8 mi South 8.1 mph - 0.02 in Rain Rain
12:17 PM 54.0 °F 53.1 °F 97% 29.82 in 2.0 mi South 9.2 mph - 0.07 in Rain Rain
12:22 PM 55.0 °F 53.1 °F 93% 29.82 in 3.0 mi SSW 12.7 mph 20.7 mph 0.08 in Rain Light Rain
12:53 PM 54.0 °F 52.0 °F 93% 29.82 in 5.0 mi SSW 8.1 mph - 0.12 in Rain Light Rain
1:35 PM 55.0 °F 54.0 °F 96% 29.79 in 10.0 mi South 9.2 mph - 0.01 in   Overcast
1:53 PM 55.0 °F 53.1 °F 93% 29.79 in 10.0 mi South 8.1 mph - 0.01 in   Mostly Cloudy
2:53 PM 55.0 °F 52.0 °F 89% 29.79 in 10.0 mi SSW 4.6 mph - N/A   Overcast
3:53 PM 57.9 °F 53.1 °F 84% 29.77 in 10.0 mi SSW 12.7 mph 19.6 mph N/A   Clear
4:53 PM 59.0 °F 52.0 °F 78% 29.78 in 10.0 mi South 8.1 mph - N/A   Clear
5:53 PM 57.0 °F 51.1 °F 81% 29.79 in 10.0 mi South 8.1 mph - N/A   Clear
6:53 PM 55.9 °F 51.1 °F 84% 29.81 in 10.0 mi South 5.8 mph - N/A   Partly Cloudy
7:53 PM 54.0 °F 50.0 °F 86% 29.83 in 10.0 mi South 5.8 mph - N/A   Partly Cloudy
8:53 PM 54.0 °F 50.0 °F 86% 29.85 in 10.0 mi SW 6.9 mph - N/A   Mostly Cloudy
9:53 PM 53.1 °F 46.9 °F 80% 29.88 in 10.0 mi WSW 6.9 mph - N/A   Clear
10:53 PM 52.0 °F 44.1 °F 74% 29.90 in 10.0 mi WSW 6.9 mph - N/A   Clear
11:53 PM 51.1 °F 42.1 °F 71% 29.90 in 10.0 mi SW 4.6 mph - N/A   Clear